Погода в Ясногорске

Россия / Забайкальский край     50°52′26″N   115°41′31″E
темп.,
°C
ветер,
м/с
пор.,
м/с
влажн.,
%
обл.,
%
осадки,
мм/ч
давл.,
гПа
погр.,
м
7 мая, пт
пт700:00+7зсз5114773 0.0 1005477
03:00+4зсз595399 0.0 1003357
06:00+4зсз3650100 0.0 1002344
09:00+5сз4540100 0.0 1000800
12:00+8ссз4434100 0.0 9992074
15:00+6с7762100 0.1 10001116
18:00+5ссв61185100 1.4 1001678
21:00+5ссз358044 1.7 1003137
8 мая, сб
сб800:00+4с47751 0.0 1005139
03:00+3с47680 0.0 1007130
06:00+2ссз33764 0.0 100854
09:00+7с58445 0.0 1008830
12:00+10ссз583881 0.1 10072260
15:00+12с673190 0.1 10052350
18:00+12ссз57297 0.0 10042198
21:00+8с224246 0.0 100621
9 мая, вс
вс900:00+7св114993 0.0 100710
03:00+7ссз114584 0.0 100612
06:00+5с225594 0.0 100837
09:00+9ссв344368 0.0 1008693
12:00+11с453698 0.0 10072344
15:00+13с453189 0.0 10062419
18:00+13ссв342679 0.0 10062516
21:00+10з114179 0.0 100877
10 мая, пн
пн1000:00+8ссз114950 0.0 101010
03:00+6в115597 0.0 101010
06:00+5в11585 0.0 101110
09:00+10вюв33345 0.0 1011498
12:00+14юв442941 0.0 10092311
15:00+16ююв5522100 0.0 10062911
18:00+16вюв6722100 0.0 10052850
21:00+13в71129100 0.0 1004502
11 мая, вт
вт1100:00+12юв81331100 0.0 10041569
03:00+7в81275100 2.4 10041091
06:00+5всв71480100 6.2 10031208
09:00+5св91486100 13.6 10031057
12:00+6св71187100 8.3 10041042
15:00+8св71277100 11.7 10041358
18:00+9св61067100 0.3 10041289
21:00+6св367994 0.4 1006109